Regional Weather Roundup
Issued by NWS

Home | Current Version | Previous Version | Graphics & Text | Print | Product List | Glossary Off
Versions: 1 2 3 4 5 6 7 8 9 10 11 12 13 14 15 16 17 18 19 20 21 22 23 24 25 26 27 28 29 30 31 32 33 34 35 36 37 38 39 40 41 42 43 44 45 46 47 48 49 50

000
ASUS43 KMKX 291921
RWRWI

WISCONSIN REGIONAL WEATHER ROUNDUP
NATIONAL WEATHER SERVICE MILWAUKEE/SULLIVAN WI
200 PM CDT FRI AUG 29 2014

NOTE: "FAIR" INDICATES FEW OR NO CLOUDS BELOW 12,000 FEET WITH NO
SIGNIFICANT WEATHER AND/OR OBSTRUCTIONS TO VISIBILITY.

WIZ001-002-006>008-014>016-023>028-292000-
NORTHWEST WISCONSIN

CITY           SKY/WX    TMP DP  RH WIND       PRES   REMARKS
SUPERIOR ARPT  LGT RAIN  62  62  99 NE6       29.77F
ASHLAND        LGT RAIN  67  65  93 S3        29.79F FOG
HAYWARD        LGT RAIN  65  65 100 S6        29.81F FOG
SIREN          RAIN      67  67  97 S6        29.79S
RICE LAKE      CLOUDY    73  67  81 SE7       29.81F
LADYSMITH      PTSUNNY   75  67  77 S9        29.84F
EAU CLAIRE     MOSUNNY   80  71  74 S10       29.80F HX  84
MENOMONIE      MOCLDY    81  69  67 S9        29.79F HX  84
NEW RICHMOND   LGT RAIN  73  69  87 W9        29.80F
OSCEOLA        CLOUDY    69  68  98 W7        29.83S
$$

WIZ003>005-009-010-017-018-292000-
NORTH CENTRAL WISCONSIN

CITY           SKY/WX    TMP DP  RH WIND       PRES   REMARKS
WOODRUFF       CLOUDY    67  64  88 S9        29.86F
RHINELANDER    CLOUDY    66  63  90 SE6       29.88F
EAGLE RIVER    CLOUDY    67  63  87 S9        29.87F
LAND O LAKES   CLOUDY    68  63  85 S7        29.87F
PHILLIPS       CLOUDY    70  67  89 S8        29.83F
TOMAHAWK       CLOUDY    66  64  92 S3        29.88F FOG
MEDFORD        CLOUDY    71  67  88 SE8       29.86F
MERRILL        CLOUDY    67  66  97 SE6       29.87F FOG
$$

WIZ029-030-035-036-043>047-292000-
CENTRAL WISCONSIN

CITY           SKY/WX    TMP DP  RH WIND       PRES   REMARKS
WAUSAU         CLOUDY    70  67  90 E6        29.86F FOG
MOSINEE        CLOUDY    72  70  94 S9        29.88F
MARSHFIELD     PTSUNNY   76  68  76 SE8       29.85F
STEVENS POINT  PTSUNNY   73  67  80 S5        29.87F
WAUPACA        MOSUNNY   82  71  71 SW3       29.87F HX  86
WAUTOMA        MOSUNNY   84  72  67 S9        29.86F HX  89
WISC RAPIDS    PTSUNNY   78  69  73 SW6       29.87F HX  80
CAMP DOUGLAS   MOSUNNY   82  73  74 S9        29.85F HX  88
$$

WIZ011>013-019>022-031-037>040-048>050-292000-
NORTHEAST WISCONSIN

CITY           SKY/WX    TMP DP  RH WIND       PRES   REMARKS
ANTIGO         CLOUDY    65  65 100 S7        29.90F FOG
STURGEON BAY   CLOUDY    72  66  83 S17       29.89F
GREEN BAY      SUNNY     81  72  74 SW8       29.86F HX  85
MANITOWOC      SUNNY     74  69  85 S21       29.89F
APPLETON       PTSUNNY   82  70  65 S12       29.87F HX  86
CLINTONVILLE   CLOUDY    77  68  73 SW7       29.87F
OSHKOSH        SUNNY     84  73  69 SW13      29.86F HX  90
$$

WIZ032>034-041-042-053>061-292000-
SOUTHWEST WISCONSIN

CITY           SKY/WX    TMP DP  RH WIND       PRES   REMARKS
LA CROSSE      SUNNY     83  70  64 S14       29.81F HX  87
SPARTA         SUNNY     83  68  60 S8        29.84F HX  86
VIROQUA        FAIR      82  72  70 S9G16     29.85F HX  87
BOSCOBEL       SUNNY     87  70  56 S8        29.84F HX  92
PRAIRIE DU CHI SUNNY     85  69  57 S7        29.82F HX  89
PLATTEVILLE    FAIR      83  73  70 S15       29.88F HX  89
$$

WIZ056-057-062-063-064-067-068-292000-
SOUTH CENTRAL WISCONSIN

CITY           SKY/WX    TMP DP  RH WIND       PRES   REMARKS
BARABOO/DELLS  SUNNY     84  67  56 SW13G20   29.86F HX  87
LONE ROCK      SUNNY     90  73  57 S13       29.84F HX  98
WATERTOWN      MOSUNNY   82  72  72 S12G21    29.89F HX  87
MADISON        PTSUNNY   85  71  63 S17G26    29.88F HX  90
MIDDLETON      FAIR      85  69  58 S15       29.88F HX  89
MONROE         MOSUNNY   81  70  69 S13       29.90S HX  84
JANESVILLE     PTSUNNY   77  72  83 S8        29.90F
$$

WIZ051-052-058>065-066-070>072-292000-
SOUTHEAST WISCONSIN

CITY           SKY/WX    TMP DP  RH WIND       PRES   REMARKS
MILWAUKEE      PTSUNNY   77  71  82 SE12      29.91F
WAUKESHA       PTSUNNY   81  72  74 S9G17     29.93F HX  84
MILWAUKEE/TIMM MOSUNNY   81  70  69 S8G17     29.92F HX  84
RACINE         PTSUNNY   77  69  76 S12       29.94F
BURLINGTON     PTSUNNY   79  71  75 S9        29.92F HX  82
KENOSHA        PTSUNNY   82  73  74 S10       29.93F HX  87
FOND DU LAC    SUNNY     84  70  62 S15       29.87F HX  88
SHEBOYGAN      SUNNY     78  71  79 S12       29.89F HX  80
WEST BEND      SUNNY     82  68  61 S14       29.89F HX  85
JUNEAU         MOSUNNY   83  71  68 S15G22    29.90F HX  87
$$

LSZ147-162-292000-
LAKE SUPERIOR

STATION/POSITION TIME  TEMP    WIND        PRES    WAVE
                       AIR SEA DIR/SP/G            HT/PER
                 (UTC) (F)     (DEG/KT/KT) (MB)    (FT/S)
W MID LAKE BUOY  1850   59 58  100/  6/  6 1009.2F   1/ 3
DEVILS ISLAND    1900   61     120/  5/  6 1009.0F
PORT WING        1840   63      40/  5/  6 1009.1R
SAXON HARBOR     1800   71     190/  9/ 15 1008.8F
$$

LMZ867-665-643>646-292000-
LAKE MICHIGAN

STATION/POSITION TIME  TEMP    WIND        PRES    WAVE
                       AIR SEA DIR/SP/G            HT/PER
                 (UTC) (F)     (DEG/KT/KT) (MB)    (FT/S)
N MID LAKE BUOY  1850   67 65  200/ 17/ 21 1012.3F   4/ 5
NORTHPORT PIER   1800   67     160/  9/ 18 1012.9F
SISTER BAY       1811   70     190/ 22/ 27   N/A
KEWAUNEE LAKESHO 1900   67     170/ 14/ 17 1011.7F
SHEBOYGAN LAKESH 1900   68 70  170/ 15/ 16 1012.4F
ATWATER BUOY     1900   70     150/ 16/ 19 1013.7F
MILWAUKEE LAKESH 1900   70     150/ 13/ 16   N/A
S MID LAKE BUOY  1850   70 69  150/ 14/ 16 1014.3F   3/ 5
KENOSHA   LAKESH 1900   74     170/ 13/ 15 1012.9F
$$

TC  - TEMPERATURE IN CELSIUS
VSB - VISIBILITY IN STATUTE MILES
WCI - WIND CHILL INDEX
HX  - HEAT INDEX




USA.gov is the U.S. government's official web portal to all federal, state and local government web resources and services.